Flag for Micronesia Weather past 2 weeks in Colonia, Yap, Micronesia

79 °F

Mostly cloudy.

Feels Like: 82 °F
Forecast: 79 / 88 °F
Wind: 9 mph from East

Location: Yap Island

Current Time: Nov 29, 2015 at 11:27:29 PM

Latest Report: Nov 29, 2015 at 10:51 PM

Visibility: 12 mi

Pressure: 29.85 "Hg

Humidity: 94%

Dew point: 77 °F

Location of ColoniaLocation

Historic Weather in Colonia — Graph


Colonia temperature yesterday

Maximum temperature yesterday: 87 °F (at 2:51 PM)
Minimum temperature yesterday: 80 °F (at 5:50 AM)
Average temperature yesterday: 83 °F

Past Weeks' High & Low Weather Summary

High89 °F (Nov 17, 12:54 PM)96% (Nov 22, 12:50 AM)29.88 "Hg (Nov 22, 12:50 AM)
Low77 °F (Nov 21, 10:50 PM)67% (Nov 17, 12:54 PM)29.67 "Hg (Nov 21, 2:55 PM)
Average82 °F85%29.79 "Hg
* Reported Nov 14 9:52 PM — Nov 29 9:50 PM, Colonia, Weather by CustomWeather, © 2015

Note: Actual official high and low records may vary slightly from our data, if they occured in-between our weather recording intervals... More about our weather records


Colonia weather history for previous 24 hours

Time TempWeatherWind HumidityBarometerVisibility
9:50 PM
Sun, Nov 29
79 °FMostly cloudy.8 mph94%29.85 "Hg12 mi
8:50 PM80 °FPartly cloudy.5 mph92%29.85 "Hg12 mi
7:53 PM80 °FPartly cloudy.5 mph93%29.84 "Hg12 mi
6:52 PM80 °FBroken clouds.5 mph91%29.82 "Hg12 mi
5:50 PM80 °FBroken clouds.3 mph93%29.80 "Hg12 mi
4:53 PM82 °FBroken clouds.5 mph87%29.80 "Hg12 mi
3:53 PM84 °FBroken clouds.10 mph83%29.79 "Hg12 mi
2:53 PM82 °FSprinkles. Broken clouds.6 mph90%29.80 "Hg10 mi
1:53 PM84 °FMore clouds than sun.9 mph86%29.80 "Hg12 mi
12:54 PM87 °FMore clouds than sun.15 mph75%29.83 "Hg12 mi
11:50 AM86 °FBroken clouds.16 mph77%29.86 "Hg12 mi
10:51 AM84 °FBroken clouds.14 mph80%29.88 "Hg12 mi
9:51 AM84 °FMostly cloudy.16 mph83%29.88 "Hg12 mi
8:56 AM85 °FBroken clouds.13 mph80%29.88 "Hg12 mi
7:50 AM82 °FBroken clouds.9 mph84%29.88 "Hg12 mi
6:52 AM81 °FPartly cloudy.8 mph88%29.86 "Hg12 mi
5:52 AM80 °FPartly cloudy.8 mph88%29.85 "Hg12 mi
4:59 AM81 °FPartly cloudy.12 mph87%29.85 "Hg12 mi
3:52 AM80 °FPartly cloudy.6 mph90%29.85 "Hg12 mi
2:53 AM81 °FSprinkles. Partly cloudy.9 mph88%29.85 "Hg11 mi
1:50 AM81 °FPassing clouds.8 mph85%29.86 "Hg12 mi
12:55 AM82 °FPassing clouds.12 mph85%29.86 "Hg12 mi
11:53 PM
Sat, Nov 28
82 °FPassing clouds.12 mph83%29.88 "Hg12 mi
Weather by CustomWeather, © 2015

See weather overviewHow to use our weather pages